Wetbulb
56.29 56.51 57.13 57.23 57.12 57.52 57.44 57.25 57.21 57.01 56.68 56.56 58.52 58.26 57.00 56.09 55.48 55.19 59.65 63.33 57.86 55.29 56.96 58.85 59.37 57.42 58.03 59.32 57.23 58.13 57.33 61.25 58.52 55.66 54.38 54.10 54.52 56.13 56.12 56.62 54.08 50.82 54.60 53.73 54.19 52.43 50.54 61.58 61.44 56.73 60.34 59.67 59.79 63.11
55.83 56.39 56.75 57.09 57.21 57.23 57.08 56.82 56.90 56.64 56.65 56.62 58.13 58.03 56.70 55.87 55.28 54.57 57.76 63.71 63.21 57.28 57.10 60.59 60.81 61.39 60.17 59.79 58.36 59.85 55.67 53.55 59.80 58.45 56.52 56.44 55.85 55.74 55.01 52.12 56.64 50.27 53.37 56.18 57.44 56.91 62.81 62.52 61.14 63.12 61.85 61.80 63.58 65.74
55.55 56.07 56.43 56.81 56.87 56.81 56.76 56.78 56.68 56.60 56.64 56.87 58.00 58.10 56.91 55.96 55.29 54.26 57.74 61.19 61.28 57.90 58.42 59.52 58.92 62.10 62.81 61.56 61.74 56.40 58.47 57.61 59.40 64.68 61.63 60.44 54.92 57.88 53.07 53.01 49.35 53.68 57.04 56.10 56.56 61.45 61.74 62.41 63.57 62.36 63.02 63.81 64.54 65.58
55.07 55.49 55.95 56.05 56.13 56.03 56.19 56.31 56.39 56.37 56.52 56.90 57.96 57.73 56.81 55.99 55.30 53.84 56.81 60.81 60.56 58.62 54.06 57.38 62.37 61.00 63.94 63.19 61.54 60.70 60.83 63.07 62.97 63.77 60.68 58.89 57.15 59.13 52.40 54.95 52.59 54.16 56.66 60.79 59.57 61.68 61.11 60.47 59.72 59.63 65.05 65.58 64.78 66.14
54.45 54.79 55.15 55.37 55.59 55.61 55.73 55.81 55.99 56.29 56.42 57.32 57.76 57.49 56.54 55.65 54.97 55.13 57.93 60.08 61.81 57.40 53.23 55.33 60.30 62.31 63.07 62.97 61.97 60.60 60.31 60.08 60.04 60.29 59.55 58.04 60.73 59.90 59.92 56.66 55.43 58.18 55.51 57.39 57.87 64.32 66.17 59.82 60.84 62.29 66.03 64.66 65.92 65.96
53.68 54.25 54.49 54.97 55.21 55.35 55.59 55.79 55.97 56.29 56.81 57.12 57.24 56.76 55.74 54.75 54.44 56.13 57.72 61.34 62.45 60.55 54.26 53.42 61.81 61.31 62.11 61.79 61.50 61.01 60.13 59.99 59.95 59.79 59.02 61.25 61.75 60.04 55.97 55.23 60.94 60.30 61.66 62.89 61.93 63.98 64.59 65.96 66.03 66.39 65.53 65.94 66.22 67.11
53.63 53.96 54.31 54.49 54.73 55.01 55.13 55.33 55.61 56.43 56.49 56.65 56.59 55.69 54.82 53.90 54.70 55.74 54.36 56.75 52.74 60.65 55.76 54.97 56.19 60.50 62.08 61.26 60.89 60.86 60.74 59.12 59.47 59.55 58.20 58.69 60.72 60.37 56.85 53.88 61.14 62.50 63.54 62.86 64.21 62.97 61.96 63.31 62.87 64.89 66.49 66.74 66.12 68.70
53.98 54.02 54.30 54.49 54.79 54.99 55.19 55.27 55.75 56.01 56.05 55.95 55.67 54.60 53.94 53.20 52.23 54.12 59.85 54.38 54.69 56.30 57.18 53.02 54.93 58.14 61.67 58.01 57.25 60.84 58.98 59.19 59.93 59.48 60.37 58.93 59.83 58.16 54.20 58.45 60.86 60.75 60.77 61.12 62.61 63.37 62.65 63.88 65.79 65.63 66.93 67.42 66.66 67.28
53.71 53.88 54.30 54.45 54.71 55.09 55.23 55.59 55.65 55.47 55.39 54.84 53.78 52.67 54.26 53.36 56.63 57.81 56.22 53.93 57.65 56.36 52.94 55.04 52.81 52.88 60.75 58.55 59.45 59.41 59.98 55.81 60.08 57.30 58.03 59.74 57.39 55.16 58.47 58.49 59.24 59.67 58.16 57.01 58.13 61.74 63.42 64.18 64.61 66.37 66.04 66.14 66.55 67.03
53.69 53.83 54.08 54.55 54.91 55.23 55.10 55.06 54.86 54.15 53.64 52.46 52.83 54.29 53.28 56.56 55.01 55.49 55.89 54.73 54.10 55.46 54.22 51.29 56.70 54.24 59.15 58.37 57.42 58.13 58.86 55.81 54.05 57.11 60.08 57.83 56.62 62.16 59.03 62.77 61.33 62.45 60.57 61.08 59.49 61.37 64.23 63.15 65.07 64.69 65.40 66.25 67.20 66.71
53.77 53.97 54.01 54.03 53.77 53.43 53.00 52.75 52.35 51.93 50.78 53.36 53.23 53.11 58.57 55.14 57.04 56.23 53.55 52.87 54.18 51.91 54.47 54.08 54.90 54.29 59.99 55.27 56.72 59.93 56.19 56.93 51.88 54.89 56.14 54.80 54.96 60.75 65.01 66.09 67.25 67.34 66.63 64.93 64.37 64.82 64.39 64.38 64.70 65.03 65.67 66.91 67.10 65.95
51.95 51.93 51.74 51.71 51.40 51.15 50.99 50.92 51.25 50.35 54.65 51.59 53.09 55.50 58.51 55.58 53.55 51.47 50.56 52.79 51.90 50.99 56.23 54.72 55.81 56.85 58.11 60.77 56.54 59.36 55.27 57.14 51.31 57.84 54.67 52.71 58.56 66.57 64.00 63.62 63.51 64.66 63.85 63.47 64.15 63.60 63.71 64.32 66.29 66.47 67.06 67.16 66.00 65.12
50.82 50.82 50.68 50.59 50.70 50.76 50.55 50.16 50.48 51.18 51.66 55.10 50.98 50.69 51.83 53.41 44.20 47.63 46.81 49.07 50.90 54.84 56.95 56.01 55.10 57.45 58.30 59.10 56.35 56.34 53.45 52.20 57.93 53.57 52.26 55.45 64.81 66.21 66.96 64.46 62.58 63.45 63.92 64.03 64.01 63.94 64.47 65.73 67.05 67.30 67.11 66.99 65.90 64.88
49.60 49.67 49.50 49.29 49.28 49.43 49.64 50.02 50.13 51.84 53.13 49.22 46.01 40.02 48.58 48.22 50.29 51.32 51.56 52.45 57.46 57.38 58.04 56.74 55.58 55.81 57.72 55.58 55.10 51.79 54.94 55.61 50.82 49.54 51.47 57.32 65.91 66.61 66.65 64.89 63.28 62.50 63.01 63.11 63.57 64.59 64.99 66.92 65.94 67.85 66.84 66.33 65.45 64.34
49.41 48.38 48.31 48.76 49.16 48.63 49.39 50.24 50.37 52.96 50.14 48.76 45.87 41.98 48.58 53.19 53.95 54.79 57.28 56.83 57.07 58.00 57.33 55.82 56.62 55.95 55.44 54.19 54.53 53.72 52.04 49.79 51.67 51.46 57.18 63.74 68.87 68.80 67.39 65.77 63.82 63.52 63.71 63.72 64.68 65.10 65.55 66.32 67.02 66.69 66.35 65.97 65.70 65.18
48.49 48.30 47.30 48.40 49.01 48.75 49.72 50.82 51.89 52.73 50.69 49.75 48.79 48.31 52.18 51.20 50.98 53.11 54.79 54.28 58.52 56.83 57.82 57.26 53.58 52.83 51.00 52.19 51.60 50.51 49.94 49.70 53.45 60.07 63.47 66.62 69.02 69.23 68.73 66.61 66.60 65.81 65.63 64.82 65.90 66.82 67.05 67.26 66.43 66.23 66.19 65.57 65.04 64.81
47.66 47.63 47.37 48.27 49.06 48.68 49.59 50.39 50.69 46.84 46.14 47.25 47.89 51.85 51.74 52.27 51.87 52.99 56.03 54.36 58.18 55.72 51.80 53.86 49.84 50.36 55.10 51.63 51.01 53.87 51.79 56.00 60.35 60.55 57.13 59.41 65.39 67.59 67.78 67.94 67.36 66.89 66.87 67.62 68.47 68.20 67.69 67.61 66.59 65.96 64.71 65.43 63.98 64.47
47.11 47.36 48.10 48.60 48.61 50.16 50.60 48.85 46.20 46.51 43.65 48.26 47.27 50.48 53.05 53.91 52.38 52.45 55.36 56.56 55.82 54.56 53.50 50.68 54.12 51.69 50.96 49.60 52.06 57.54 58.58 58.04 61.03 60.83 59.81 63.70 67.17 67.38 67.56 67.34 67.59 67.49 67.33 69.14 68.83 68.30 67.85 67.18 65.71 64.15 65.34 65.30 64.02 63.37
45.97 48.22 48.01 48.07 48.73 48.79 47.48 47.61 46.43 41.31 46.01 48.28 49.09 52.22 51.90 52.57 54.19 54.53 55.25 56.79 56.88 57.79 54.43 52.76 50.42 49.49 51.19 57.87 57.81 58.99 57.46 55.41 55.27 56.61 60.53 63.41 67.34 66.85 67.15 66.92 66.96 67.14 67.34 67.92 67.69 65.62 65.76 67.54 65.05 64.71 64.05 63.44 61.90 61.76
48.14 48.28 48.73 48.81 47.90 48.61 46.25 46.88 50.74 45.88 44.31 48.18 50.48 49.93 51.09 51.98 53.75 53.15 53.21 53.74 53.72 53.35 50.86 49.60 50.04 53.07 55.37 59.26 61.42 59.66 60.26 60.07 58.23 56.47 59.83 64.68 65.71 66.20 66.23 65.86 65.36 66.34 66.08 66.78 66.54 60.83 66.06 64.99 65.48 64.99 63.93 63.08 61.52 60.32
46.84 49.57 48.66 49.25 49.28 48.88 46.45 45.34 45.76 46.44 46.51 46.84 50.38 50.67 49.58 51.25 49.50 49.42 49.94 52.71 50.46 49.75 49.01 52.27 53.17 54.94 58.22 60.03 61.69 59.67 59.47 62.60 60.93 60.60 61.26 61.03 63.68 64.54 64.91 65.40 65.95 65.40 64.73 64.61 63.87 62.87 61.54 64.12 63.42 63.98 62.80 61.83 61.06 59.77
48.61 47.92 48.26 49.17 45.48 46.33 45.71 48.02 45.28 46.56 46.06 46.78 47.99 48.75 47.17 47.01 48.16 49.46 52.26 50.00 49.82 51.21 52.66 53.48 55.02 55.82 57.36 58.82 58.95 61.70 61.85 61.90 62.89 60.09 54.90 57.48 64.98 62.96 63.50 64.01 64.10 63.75 64.10 64.22 63.81 63.02 63.37 63.94 63.75 62.67 60.90 60.06 57.93 59.09
47.83 47.87 46.23 45.10 42.06 41.16 39.13 48.24 43.07 45.22 42.01 44.47 46.51 44.52 45.29 46.50 48.91 52.06 47.83 49.75 50.64 53.35 53.72 54.26 57.35 59.80 57.09 58.43 59.15 59.27 61.27 60.88 60.03 60.13 61.30 62.63 63.64 63.79 64.15 64.75 64.50 62.75 61.61 63.11 64.52 63.86 63.08 57.62 58.98 60.23 60.37 59.38 59.33 58.89
43.52 43.41 40.17 39.35 40.70 37.23 45.21 40.44 42.49 42.82 44.12 43.08 42.99 42.22 44.20 46.37 49.85 47.80 45.74 48.65 51.42 54.14 53.98 57.78 55.27 54.39 55.56 57.98 55.35 56.23 58.24 59.97 59.71 60.05 60.68 61.45 62.80 59.86 63.64 64.17 64.75 61.01 64.51 61.70 61.94 63.57 62.34 61.36 56.49 59.10 59.43 58.90 59.24 58.57
37.87 36.92 37.64 32.73 39.86 37.52 36.73 37.88 39.84 40.57 39.20 41.98 41.01 41.95 44.48 48.14 44.47 44.27 45.02 48.39 50.78 51.74 53.35 55.14 54.61 54.66 53.38 54.35 55.30 56.03 58.74 57.63 57.42 57.31 59.08 60.48 62.78 64.17 63.97 63.57 63.73 63.99 64.89 62.22 60.92 58.50 60.67 60.23 59.38 59.32 59.34 59.21 59.13 59.32
32.84 38.34 35.31 38.26 39.51 38.53 39.53 37.77 39.23 39.59 40.29 39.56 40.40 43.71 45.73 43.70 41.93 41.24 45.53 49.57 50.66 52.33 53.69 53.72 54.11 53.96 54.33 55.44 54.87 55.38 56.93 58.92 58.18 56.88 58.52 60.10 61.71 63.15 61.87 60.97 61.46 62.07 64.30 63.70 61.67 58.76 60.32 60.59 59.43 59.54 59.22 57.97 50.86 58.62
31.49 37.46 42.11 45.14 43.23 41.74 39.96 41.47 42.40 40.50 39.11 38.24 40.62 40.99 41.22 37.97 39.38 44.74 49.97 52.04 52.37 55.57 57.96 57.67 56.86 55.41 55.03 55.95 57.44 58.98 59.88 59.19 60.17 58.85 59.87 60.62 62.47 64.67 64.00 63.33 60.63 62.75 64.39 64.01 62.23 60.90 60.71 60.60 60.36 58.45 56.97 58.23 59.69 59.59
39.33 41.37 38.36 41.27 40.99 42.44 38.85 38.81 37.18 36.70 39.54 42.31 42.77 39.03 38.18 39.84 41.78 50.40 53.27 56.54 57.30 57.52 57.26 57.87 57.33 57.13 57.08 56.84 57.55 58.38 59.06 59.89 60.15 59.49 60.00 60.69 64.10 65.35 65.21 65.49 63.68 50.77 63.79 64.00 62.82 61.81 61.13 60.50 59.68 58.78 59.03 59.61 60.03 60.36
39.29 41.98 40.79 37.70 39.16 37.78 38.07 37.04 38.03 41.71 44.16 43.60 41.36 40.11 41.84 46.38 49.02 52.40 53.53 54.91 56.96 56.70 55.41 54.19 55.16 56.87 56.97 57.47 57.90 58.31 59.03 58.85 57.48 56.22 55.32 56.61 59.52 61.87 64.44 64.88 64.59 64.15 64.66 62.00 51.65 57.72 60.97 58.51 59.80 61.76 60.99 60.51 60.97 60.99
41.38 44.51 39.85 38.41 35.61 35.18 39.27 41.23 42.16 45.19 46.15 46.84 46.79 45.59 46.48 48.80 49.81 50.84 52.10 53.71 53.74 52.87 52.68 53.43 55.07 55.24 55.13 54.79 55.24 57.10 58.74 59.93 58.87 58.04 55.90 55.59 59.34 62.73 63.50 63.46 63.50 63.43 63.77 64.86 63.08 60.58 52.44 58.23 57.53 59.67 58.46 60.00 59.72 59.13
45.45 44.35 41.74 40.47 38.44 40.69 41.79 42.20 43.00 44.83 46.03 45.96 46.86 44.19 45.23 48.61 50.78 53.42 52.95 53.66 53.56 53.62 53.12 53.36 54.14 55.19 54.87 54.27 55.04 56.06 54.96 59.79 60.32 60.73 61.47 61.60 61.04 61.72 62.09 64.08 63.85 63.97 63.92 63.76 62.73 60.80 59.80 59.74 59.64 59.22 60.00 59.24 58.39 57.30
44.25 42.83 40.96 39.56 41.19 44.86 46.01 42.74 41.76 41.42 43.54 45.35 44.12 47.28 47.06 46.98 45.76 49.71 53.60 53.87 52.59 52.26 51.81 52.62 53.60 54.14 57.04 58.77 59.47 59.76 51.15 60.99 62.25 62.12 62.41 63.04 63.85 64.95 65.70 64.75 63.84 63.49 63.13 62.22 60.55 60.41 59.91 59.70 59.35 59.08 59.62 59.55 59.65 59.09
44.15 44.26 42.36 40.36 40.09 40.47 42.78 41.90 39.38 37.40 39.33 40.22 41.96 44.86 46.38 46.18 43.97 50.16 54.63 55.46 55.28 54.06 54.37 55.21 55.64 57.02 59.52 59.39 57.88 58.07 56.70 58.80 54.07 46.04 46.84 48.19 49.12 55.62 62.68 64.53 62.16 61.58 60.64 60.21 60.08 59.83 59.74 59.49 58.90 59.13 59.35 60.11 58.93 60.02
MSLP
1012.47 1012.30 1012.33 1012.48 1012.73 1013.02 1013.32 1013.56 1013.79 1013.86 1013.86 1013.82 1013.79 1013.78 1013.75 1013.65 1013.47 1013.07 1010.30 1008.80 1008.78 1006.91 1004.36 1003.35 1002.27 1001.71 1000.92 1000.40 1000.27 1002.83 1002.91 999.17 997.95 997.59 996.64 996.07 996.50 998.74 999.21 1000.18 1000.26 1000.46 998.59 996.06 995.15 994.87 995.64 996.66 996.18 997.00 998.73 998.12 998.75 995.98
1012.03 1011.74 1011.77 1011.91 1012.11 1012.52 1012.86 1013.14 1013.37 1013.51 1013.55 1013.55 1013.53 1013.59 1013.63 1013.61 1013.49 1013.36 1010.72 1008.80 1008.61 1008.04 1005.31 1004.08 1003.26 1002.30 1001.74 1000.77 1001.28 1002.37 1003.82 1003.85 1000.94 998.23 996.70 996.79 998.51 1000.07 1000.66 1001.77 1002.76 1002.56 1003.15 1000.18 995.80 996.28 996.88 996.70 996.90 997.53 999.04 998.91 997.78 996.80
1011.65 1011.39 1011.26 1011.38 1011.55 1012.00 1012.39 1012.71 1012.95 1013.13 1013.21 1013.26 1013.28 1013.38 1013.46 1013.50 1013.49 1013.47 1011.73 1009.93 1008.63 1007.14 1004.65 1002.78 1001.03 1000.13 1000.51 1000.52 1000.89 1001.61 1002.88 1004.76 1001.80 997.29 997.60 997.02 998.41 1000.77 1001.63 1003.07 1004.41 1005.15 1004.52 1001.63 997.42 997.12 997.90 998.24 998.19 998.24 998.68 996.69 996.42 996.96
1011.35 1011.24 1011.05 1011.11 1011.30 1011.67 1012.07 1012.40 1012.60 1012.75 1012.88 1012.99 1013.08 1013.18 1013.30 1013.36 1013.39 1013.46 1011.95 1010.27 1009.12 1007.65 1004.96 1000.47 999.16 999.34 999.62 999.41 1000.06 1000.68 1000.42 1000.20 1000.30 998.39 996.95 997.40 998.03 999.58 1001.29 1001.85 1003.13 1005.27 1004.29 999.41 997.27 998.04 998.46 998.78 998.36 999.08 997.74 996.49 996.73 997.46
1011.15 1011.09 1011.07 1011.11 1011.31 1011.49 1011.79 1012.07 1012.27 1012.42 1012.55 1012.72 1012.85 1012.98 1013.11 1013.20 1013.18 1012.85 1011.61 1010.32 1009.34 1008.83 1005.91 1002.72 1000.89 999.21 998.94 998.94 999.91 1000.28 1000.45 1000.24 999.71 998.58 998.02 997.64 997.59 998.61 998.53 1000.62 1000.96 1001.20 1000.15 997.73 996.39 996.73 996.77 998.55 998.46 998.48 997.05 997.13 997.77 998.40
1010.95 1010.89 1010.91 1010.98 1011.13 1011.29 1011.50 1011.75 1011.97 1012.15 1012.31 1012.49 1012.64 1012.82 1012.96 1013.04 1013.01 1011.99 1009.21 1008.77 1008.44 1008.57 1007.39 1003.41 999.99 999.10 998.71 998.84 999.46 999.97 1000.28 1000.48 1000.72 999.59 998.54 998.27 998.73 999.52 999.33 999.31 998.29 998.88 997.84 997.60 997.49 997.37 997.13 996.91 997.35 997.38 997.60 998.00 998.55 999.07
1010.71 1010.75 1010.68 1010.78 1010.94 1011.14 1011.33 1011.51 1011.67 1011.84 1012.07 1012.32 1012.54 1012.75 1012.86 1012.91 1012.74 1011.36 1011.12 1010.39 1010.49 1009.35 1007.47 1003.84 1000.20 998.57 998.95 999.11 999.27 999.68 1000.22 1000.36 1000.33 999.56 999.00 998.70 998.87 999.81 999.77 999.57 999.68 999.70 999.51 999.42 998.76 998.21 997.70 997.41 997.49 997.64 997.93 998.26 999.05 999.60
1010.37 1010.46 1010.54 1010.62 1010.71 1010.90 1011.09 1011.32 1011.48 1011.71 1012.02 1012.26 1012.50 1012.69 1012.74 1012.71 1012.46 1011.11 1009.14 1009.82 1010.75 1009.32 1007.03 1004.10 1000.45 998.55 998.79 998.71 998.72 999.02 999.23 999.84 999.57 999.32 998.54 998.45 999.59 1000.25 1000.45 1000.31 1000.67 1000.58 1000.38 999.94 1000.03 998.66 997.94 997.70 997.77 998.24 998.66 999.02 999.07 1000.25
1010.09 1010.20 1010.29 1010.39 1010.46 1010.63 1010.83 1011.06 1011.28 1011.61 1011.88 1012.30 1012.55 1012.63 1012.39 1012.00 1009.83 1009.22 1009.74 1010.01 1009.99 1009.30 1006.71 1003.23 1000.72 998.63 998.28 998.34 998.12 998.37 998.65 998.76 998.95 998.56 998.33 998.30 998.74 999.09 999.39 999.80 1000.78 1001.01 1001.12 1001.40 1000.53 999.38 998.51 998.18 998.51 998.64 998.67 999.35 999.59 1001.30
1009.98 1010.05 1010.12 1010.18 1010.32 1010.54 1010.80 1011.08 1011.35 1011.73 1012.08 1012.40 1012.54 1011.52 1009.80 1009.00 1009.60 1009.79 1010.09 1009.08 1008.78 1007.38 1006.58 1003.75 1001.41 999.61 998.63 997.75 997.56 997.61 998.01 998.03 997.42 997.56 997.44 997.42 997.16 997.35 998.11 998.07 998.57 1000.23 1000.35 1000.37 1001.31 999.38 997.96 998.23 998.32 998.58 999.02 999.71 1000.62 1002.11
1009.95 1009.94 1010.09 1010.26 1010.48 1010.73 1011.05 1011.39 1011.67 1011.93 1012.17 1011.92 1010.92 1009.79 1009.01 1009.52 1009.15 1008.26 1007.34 1006.63 1005.60 1004.49 1003.45 1002.31 1001.50 999.99 998.67 998.31 997.88 997.45 997.19 997.10 996.55 996.23 996.11 996.06 995.76 995.91 996.12 996.52 997.41 997.95 998.27 998.34 998.11 997.91 997.66 997.92 998.30 999.04 999.62 1000.20 1001.51 1002.76
1010.41 1010.46 1010.60 1010.82 1011.03 1011.25 1011.47 1011.63 1011.82 1012.03 1011.16 1011.27 1010.92 1010.09 1008.91 1008.12 1007.58 1006.87 1005.77 1004.81 1003.51 1002.16 1000.61 1000.40 1000.09 1000.14 999.53 998.96 998.73 997.95 996.96 996.89 995.41 994.95 995.69 995.99 994.89 995.08 995.70 995.73 996.44 997.06 997.31 997.53 997.53 997.51 997.67 997.92 998.47 999.49 1000.03 1000.99 1002.31 1003.53
1011.16 1011.25 1011.32 1011.43 1011.54 1011.67 1011.74 1011.84 1011.86 1011.71 1011.31 1010.90 1010.80 1009.78 1008.41 1007.03 1006.35 1004.91 1003.47 1002.57 1001.50 1000.31 1000.00 999.96 999.80 999.97 1000.00 999.95 999.19 998.17 997.08 996.53 995.88 995.12 994.83 994.84 995.24 995.47 995.76 996.11 996.45 996.60 996.82 996.99 997.12 997.24 997.73 997.98 998.94 999.91 1000.56 1001.81 1003.14 1004.29
1011.77 1011.76 1011.80 1011.80 1011.78 1011.84 1011.85 1011.85 1011.82 1011.70 1011.53 1010.66 1010.16 1009.08 1007.05 1005.04 1003.50 1002.35 1001.56 1001.40 1000.73 1000.60 1000.09 1000.41 1000.35 999.97 999.73 999.77 999.13 998.02 997.37 996.48 995.73 994.85 994.63 994.68 995.20 995.43 995.77 996.05 996.32 996.53 996.77 996.92 997.16 997.58 998.10 998.72 999.69 1000.40 1001.36 1002.51 1003.70 1004.77
1012.12 1012.12 1012.05 1012.08 1011.96 1011.89 1011.86 1011.87 1011.90 1011.69 1011.48 1010.31 1009.70 1007.63 1004.98 1003.06 1002.38 1002.02 1001.49 1001.30 1001.19 1000.88 1000.55 1000.82 1000.83 1001.01 1000.31 999.72 998.91 997.83 996.85 995.87 995.54 995.21 995.14 995.73 996.03 996.01 995.95 996.08 996.39 996.57 996.84 996.99 997.26 997.97 998.67 999.53 1000.14 1001.04 1002.07 1003.08 1004.08 1005.31
1012.42 1012.37 1012.20 1012.18 1012.05 1011.91 1011.86 1011.82 1011.74 1011.59 1010.83 1009.79 1008.65 1006.36 1004.13 1002.92 1002.43 1002.01 1001.52 1001.39 1001.15 1001.25 1000.76 1001.35 1001.48 1001.28 1000.87 1000.18 998.44 997.42 996.78 996.38 996.14 996.98 997.13 997.49 997.36 997.05 996.99 996.93 996.48 996.58 996.89 997.18 997.76 998.45 999.31 1000.02 1000.71 1001.57 1002.53 1003.51 1004.54 1005.49
1012.39 1012.13 1012.24 1012.12 1012.00 1011.97 1011.91 1011.84 1011.37 1011.24 1010.71 1008.98 1006.84 1005.90 1005.00 1003.70 1002.76 1002.36 1002.06 1002.21 1001.92 1001.39 1001.42 1001.91 1001.79 1001.26 1000.34 999.57 998.57 997.63 997.46 997.43 997.42 998.25 998.59 1000.25 999.15 998.46 998.15 997.84 997.23 997.02 997.19 997.51 998.19 998.93 999.74 1000.45 1001.19 1002.06 1002.89 1003.89 1004.80 1005.76
1012.19 1012.10 1012.18 1012.07 1011.97 1011.62 1011.64 1011.79 1011.47 1010.60 1009.57 1007.79 1006.43 1004.92 1004.30 1003.86 1003.22 1003.01 1002.61 1002.75 1002.34 1001.80 1002.07 1002.22 1002.27 1001.26 1000.50 999.64 999.07 999.50 999.63 1000.07 1000.57 999.72 999.44 999.68 999.91 999.08 998.62 998.52 998.01 997.68 997.78 998.03 998.73 999.40 1000.07 1000.71 1001.53 1002.45 1003.32 1004.28 1005.13 1006.03
1012.48 1012.20 1012.26 1012.14 1012.03 1011.57 1010.84 1011.06 1011.07 1010.05 1008.25 1006.97 1006.16 1004.84 1004.29 1003.84 1003.58 1003.33 1003.24 1002.83 1002.87 1002.36 1002.87 1002.37 1001.68 1001.00 1000.54 1000.35 1000.73 1000.82 1001.22 1001.72 1001.67 1000.97 1001.94 1000.55 999.44 999.04 999.02 998.93 998.57 998.26 998.41 998.75 999.29 999.71 1000.38 1001.08 1001.77 1002.58 1003.56 1004.47 1005.28 1006.08
1012.21 1012.08 1011.99 1012.02 1012.05 1010.79 1010.01 1009.81 1009.63 1008.94 1007.59 1006.11 1005.28 1004.51 1003.82 1003.45 1003.30 1003.34 1003.13 1002.89 1002.94 1002.64 1002.29 1001.80 1001.24 1000.67 1000.25 1000.57 1001.12 1001.96 1001.91 1001.84 1001.32 999.88 998.17 998.65 998.55 998.95 999.11 998.81 998.56 998.83 999.09 999.46 999.82 1000.15 1000.79 1001.50 1001.99 1002.73 1003.42 1004.60 1004.93 1005.69
1012.05 1011.51 1011.57 1011.58 1010.86 1010.53 1009.92 1009.41 1008.66 1008.22 1007.41 1006.12 1004.57 1003.89 1003.43 1003.24 1003.19 1003.07 1002.93 1002.86 1002.76 1002.35 1001.97 1001.48 1000.95 1000.63 1000.32 1000.11 1000.49 1001.04 1001.57 1001.17 1000.98 1000.30 1000.34 998.72 998.45 998.35 998.78 998.70 998.78 998.89 999.10 999.53 999.89 1000.48 1001.24 1001.51 1002.09 1002.70 1003.55 1004.06 1004.64 1005.42
1011.64 1011.51 1011.13 1010.66 1010.17 1009.73 1009.12 1008.65 1008.33 1007.91 1007.16 1005.47 1004.36 1003.86 1003.31 1002.63 1002.06 1001.72 1001.52 1001.35 1001.01 1000.75 1000.75 1000.60 1000.42 1000.40 1000.26 1000.57 1000.59 1000.57 1000.67 1001.25 1001.31 1000.73 1000.21 999.75 999.68 998.76 998.62 998.39 998.70 998.70 999.06 999.49 1000.06 1000.83 1001.14 1001.50 1002.06 1002.74 1003.53 1003.99 1004.61 1005.20
1011.61 1011.42 1011.05 1010.66 1009.92 1009.48 1008.87 1007.93 1007.75 1006.72 1005.79 1004.52 1004.01 1003.41 1002.68 1002.08 1001.64 1001.28 1000.69 1000.30 1000.06 999.92 999.89 999.87 999.91 1000.21 1000.38 1000.50 1000.63 1000.56 1000.35 1000.48 1000.63 1000.42 999.96 999.77 999.72 999.32 998.98 998.59 998.71 999.06 999.39 999.55 1000.07 1000.60 1001.04 1001.59 1002.37 1002.89 1003.39 1004.09 1004.60 1005.26
1011.62 1010.98 1010.56 1010.09 1009.58 1008.87 1007.82 1007.74 1007.91 1006.63 1005.30 1004.48 1003.71 1002.93 1002.30 1001.62 1000.99 1000.50 999.96 999.63 999.30 998.99 998.83 999.10 999.40 999.71 999.99 1000.27 1000.37 1000.22 1000.25 1000.10 1000.09 1000.09 1000.01 999.78 1000.01 1000.58 999.67 999.05 999.19 999.98 999.56 1000.01 1000.33 1000.48 1001.04 1001.67 1002.46 1002.94 1003.45 1004.05 1004.55 1005.33
1011.50 1010.93 1010.60 1010.10 1009.32 1008.75 1007.74 1007.21 1006.64 1005.85 1004.80 1004.08 1003.55 1002.78 1001.89 1000.98 1000.53 1000.03 999.67 999.26 999.02 998.73 998.22 998.29 998.81 999.13 999.26 999.24 999.31 999.61 999.92 999.93 999.73 999.72 999.73 999.66 999.53 999.81 999.85 999.74 999.72 999.96 1000.42 1000.35 1000.74 1000.84 1001.23 1001.80 1002.48 1002.71 1003.28 1003.80 1004.20 1004.85
1010.74 1009.38 1009.17 1008.07 1007.40 1007.27 1006.33 1005.54 1005.02 1004.65 1004.29 1003.99 1003.32 1002.67 1001.75 1001.15 1000.55 999.91 999.15 998.43 998.14 997.71 997.31 997.54 997.97 998.50 998.78 998.80 998.73 998.50 998.33 998.74 999.14 999.27 999.05 998.95 999.50 999.58 999.70 999.92 999.87 1000.19 1000.49 1000.88 1001.23 1001.51 1001.77 1001.84 1002.32 1002.46 1002.90 1003.56 1004.02 1004.30
1009.50 1007.55 1006.94 1006.81 1006.32 1006.55 1006.46 1005.87 1005.32 1004.75 1004.32 1003.70 1003.04 1002.70 1001.90 1001.13 1000.17 999.69 998.95 998.22 997.61 997.21 997.26 997.61 998.50 999.16 999.39 999.47 999.36 998.80 998.57 998.13 998.10 998.33 998.56 998.43 998.88 999.06 999.24 1000.10 1000.74 1000.47 1000.19 1001.04 1001.66 1002.08 1002.32 1001.88 1002.08 1002.56 1002.85 1003.30 1003.62 1004.08
1007.73 1006.75 1006.25 1006.28 1006.24 1006.28 1006.30 1006.11 1005.70 1004.91 1003.89 1003.47 1003.21 1002.57 1001.73 1000.91 1000.17 999.64 999.28 998.30 997.85 998.15 998.38 998.61 998.55 998.59 998.81 999.33 999.64 999.32 998.84 998.41 997.77 998.07 998.03 998.08 998.61 999.19 999.00 1000.16 1000.68 1001.47 1000.59 1000.56 1001.55 1001.96 1002.18 1002.31 1002.65 1002.78 1002.79 1002.77 1003.09 1003.76
1006.56 1006.40 1006.69 1006.87 1006.89 1007.45 1006.80 1006.19 1005.06 1003.76 1003.21 1002.77 1002.41 1002.17 1001.73 1000.92 1000.90 999.87 1000.05 999.37 998.96 998.76 998.74 998.75 998.81 998.40 998.24 998.46 998.69 998.89 998.73 998.10 997.46 997.30 997.69 997.89 998.51 998.98 999.43 999.58 1000.22 1000.59 1000.58 1002.06 1002.26 1002.24 1002.77 1003.30 1003.14 1002.32 1002.32 1002.44 1002.93 1003.69
1004.51 1004.57 1005.23 1005.92 1006.42 1006.20 1005.59 1005.65 1004.37 1003.08 1002.61 1002.39 1002.67 1002.42 1002.29 1001.52 1001.03 1000.80 1000.06 998.63 998.64 998.86 999.02 999.03 998.52 997.92 997.58 998.17 998.49 998.22 998.04 997.12 996.90 996.56 996.86 997.12 997.71 998.27 998.58 999.16 999.65 1000.14 1000.19 1001.21 1002.09 1002.74 1002.75 1003.37 1003.52 1002.96 1002.44 1002.48 1003.05 1003.50
1002.64 1003.01 1003.54 1004.19 1004.45 1004.32 1004.52 1004.64 1004.61 1004.09 1003.02 1002.22 1002.47 1002.33 1001.61 1000.75 999.65 998.96 998.79 998.51 998.48 998.48 998.44 998.17 997.80 997.49 997.42 997.94 997.84 997.52 997.74 996.57 996.24 996.40 996.71 996.71 997.36 997.80 998.22 998.81 999.48 1000.15 1000.85 1001.40 1001.84 1002.31 1002.76 1003.18 1003.59 1003.23 1002.53 1002.61 1003.09 1003.35
1002.61 1002.85 1003.14 1003.19 1002.83 1002.76 1003.20 1003.47 1003.40 1003.16 1002.63 1001.79 1001.35 1000.72 1000.17 1000.03 999.14 998.69 998.39 998.42 998.31 997.92 997.63 997.75 997.42 997.04 997.15 997.58 997.35 997.69 997.33 996.40 996.43 996.92 997.15 997.44 997.77 998.01 998.94 999.65 1000.30 1000.88 1001.25 1001.54 1001.94 1002.29 1002.73 1002.47 1002.80 1002.65 1002.30 1002.48 1002.88 1003.15
1002.25 1002.54 1003.03 1003.10 1002.77 1002.37 1002.03 1002.26 1002.19 1001.94 1001.83 1001.48 1001.05 1000.65 1000.06 999.72 999.07 998.21 997.32 997.68 997.52 997.04 996.89 996.68 996.90 996.72 997.33 997.92 998.19 997.99 997.62 997.90 998.31 998.28 998.62 998.82 999.19 999.14 999.51 1000.46 1000.97 1001.37 1001.66 1001.95 1002.12 1002.25 1002.25 1002.35 1002.25 1002.26 1002.23 1002.21 1002.89 1002.72
Wind_Speed
11 12 13 14 13 12 12 10 9 9 9 8 8 6 6 9 10 8 9 3 5 8 16 19 16 14 12 12 9 1 12 17 10 13 12 13 9 6 4 5 4 2 11 13 10 16 11 1 7 6 2 7 17 5
11 11 13 13 14 13 13 10 9 9 9 8 8 6 5 7 9 8 7 3 2 6 12 21 21 21 19 17 10 5 8 4 10 6 11 7 4 1 4 3 5 5 3 16 3 5 7 3 6 8 7 10 18 9
10 9 11 12 12 13 11 10 9 8 9 8 8 7 6 6 7 6 7 8 9 10 13 16 17 22 19 16 12 7 6 8 24 10 5 5 5 0 5 5 4 15 22 21 8 8 12 10 10 10 21 14 10 12
7 6 5 7 9 10 9 9 8 8 9 7 8 7 6 7 7 6 7 9 7 6 8 11 7 6 8 10 11 13 14 10 13 10 8 7 8 7 7 5 7 12 18 11 2 18 14 9 9 16 18 9 10 14
7 6 6 6 8 9 9 8 8 9 8 8 7 7 6 6 8 9 9 9 9 6 7 12 19 16 13 13 7 9 11 8 7 6 7 7 4 6 1 8 7 10 11 7 5 9 6 21 20 28 5 7 11 10
7 7 6 6 7 8 8 7 7 7 8 7 7 7 6 5 6 6 5 9 5 3 6 6 7 12 5 5 7 7 7 5 4 4 4 6 6 4 5 6 14 8 9 6 7 2 4 12 9 11 10 8 9 11
8 8 7 7 7 7 7 7 7 7 8 7 6 5 5 5 6 6 6 5 10 7 5 6 6 14 7 7 7 6 8 4 5 4 8 6 4 1 4 8 12 11 11 14 12 3 3 5 8 7 11 13 9 13
8 8 8 7 8 8 8 7 7 8 7 7 6 5 6 7 11 8 7 15 5 6 5 6 7 6 11 7 8 8 7 7 5 3 6 10 5 3 2 8 3 11 16 15 14 14 8 5 7 7 8 11 13 13
6 7 7 7 8 8 8 8 8 8 8 6 4 3 5 6 5 4 6 11 6 5 6 5 10 2 7 9 7 8 6 7 5 10 11 10 5 5 9 8 5 6 8 8 22 16 15 5 6 6 9 9 14 13
4 6 6 6 7 8 8 9 10 9 7 4 5 6 4 4 13 9 3 6 6 6 6 7 10 9 7 6 9 6 6 8 9 12 9 12 11 14 7 14 24 18 16 25 25 20 7 5 6 7 8 9 12 13
1 4 6 7 10 11 10 10 10 9 4 4 4 3 3 6 5 5 4 5 7 6 7 8 12 12 5 7 4 4 7 4 12 11 12 11 11 13 12 9 11 10 7 7 11 8 5 6 6 7 8 11 14 14
13 12 11 11 10 9 8 4 5 3 1 0 2 4 4 5 5 5 5 5 6 6 6 9 9 10 7 2 4 4 4 6 6 5 9 14 8 6 4 9 7 6 8 11 10 7 6 8 10 9 9 12 14 14
11 11 10 8 7 5 4 2 2 6 9 1 2 3 4 5 2 8 9 4 7 6 4 5 4 4 6 2 5 5 5 7 9 5 7 7 7 8 8 6 4 3 7 9 10 7 7 9 12 11 11 13 14 14
10 10 9 7 5 2 1 1 1 3 3 3 3 3 6 7 8 8 4 2 2 2 2 4 2 3 5 8 5 6 7 5 14 12 12 8 12 11 9 7 4 3 5 8 11 9 9 11 12 12 14 14 14 14
3 3 3 8 6 3 1 1 1 2 2 5 3 6 9 9 2 1 1 2 1 2 3 3 1 3 2 3 6 6 6 7 9 12 5 8 8 8 7 5 4 4 5 7 10 10 11 12 12 13 14 14 14 12
2 5 1 4 7 4 2 5 4 1 2 4 6 8 8 6 4 5 3 3 4 4 2 2 2 2 2 5 9 10 10 7 10 5 8 6 7 5 4 4 4 3 5 7 9 11 11 12 14 14 15 14 13 12
3 1 1 4 6 2 3 2 2 3 4 5 5 7 8 9 4 2 3 3 5 5 1 2 4 8 4 5 13 7 12 6 6 8 7 5 10 4 3 4 5 3 5 7 8 10 12 12 14 13 13 13 14 12
2 3 1 5 7 4 5 2 1 3 5 6 6 7 7 6 5 6 3 2 5 2 2 1 3 5 4 6 6 7 8 7 9 8 5 4 3 2 5 5 5 4 5 7 8 9 12 12 13 11 12 12 12 11
3 3 2 4 6 3 4 5 3 3 6 2 7 10 7 5 7 4 6 2 6 2 1 4 6 5 7 4 6 6 7 4 6 11 8 11 5 5 5 5 6 6 6 7 8 9 10 11 11 10 10 11 9 9
9 9 8 6 5 3 4 4 4 5 5 3 6 7 7 8 6 5 5 5 4 6 6 7 8 10 3 1 3 3 3 2 2 11 3 4 9 6 4 4 5 8 7 8 8 7 10 9 8 10 11 10 10 10
2 0 7 6 4 5 3 2 4 2 4 5 7 8 8 8 8 9 8 6 7 7 10 11 11 11 11 2 3 5 6 4 7 5 7 8 9 6 4 4 7 7 8 8 9 8 9 6 7 9 10 9 9 9
1 4 3 3 4 4 4 5 3 2 5 7 5 5 9 10 9 9 8 10 12 11 11 12 11 11 7 1 5 6 4 2 7 9 6 3 5 3 2 4 5 7 8 9 10 11 9 10 9 9 9 9 9 9
4 3 2 3 3 1 6 5 5 5 5 4 5 7 8 9 9 8 10 10 11 11 11 11 11 10 10 11 8 8 8 7 7 8 5 4 5 3 4 3 4 2 3 6 8 9 7 10 8 9 9 9 8 9
4 2 3 3 5 5 2 4 3 5 5 8 8 10 9 9 8 10 11 10 9 7 8 10 8 7 8 10 10 10 9 8 8 8 8 6 3 3 8 3 1 5 3 3 4 8 10 9 10 9 11 11 10 10
2 4 5 4 4 4 5 6 11 8 7 9 12 11 11 5 11 11 11 9 11 11 10 8 8 8 9 8 8 9 12 11 9 9 9 8 5 3 4 4 4 4 1 4 1 0 10 10 10 11 12 11 12 15
4 6 7 7 5 8 8 7 8 12 11 12 9 8 10 12 11 7 7 10 11 11 9 10 9 8 8 8 7 7 8 11 10 10 11 8 6 7 8 9 8 7 6 4 4 3 4 12 12 14 13 12 11 12
5 7 7 5 5 3 5 6 8 7 9 7 7 12 10 6 7 9 10 11 9 3 5 6 5 2 3 5 8 7 8 7 6 8 9 8 7 10 8 7 6 5 10 11 10 11 12 10 11 7 5 6 13 12
8 5 9 6 6 6 11 11 8 9 10 10 7 12 10 9 9 3 4 6 7 5 4 2 4 5 6 8 7 8 8 11 8 8 7 8 4 6 5 7 6 6 8 10 11 9 10 8 8 11 15 12 11 12
7 6 4 5 5 3 5 6 9 10 11 10 11 13 13 9 10 5 3 2 1 1 1 0 5 8 8 5 4 7 9 11 13 13 14 10 6 6 6 6 6 3 5 8 8 7 3 5 9 14 12 9 9 9
12 10 10 7 6 8 7 8 11 11 10 5 2 6 8 6 9 12 11 6 2 2 3 7 10 9 5 5 9 11 11 11 11 10 11 12 9 10 11 9 6 5 3 2 8 10 11 9 8 5 5 8 10 10
6 5 10 11 8 9 11 9 9 13 15 12 10 12 13 14 11 9 7 6 6 8 9 9 10 10 5 5 9 8 9 11 11 5 2 3 7 5 5 6 6 4 4 4 10 9 9 7 3 5 8 6 7 7
4 7 8 14 14 9 5 7 5 7 10 11 13 14 11 11 15 9 8 9 11 13 10 10 11 12 4 4 5 9 8 3 7 6 6 6 3 8 7 7 8 7 8 8 5 5 7 5 8 12 12 13 12 11
6 5 5 4 4 4 5 6 5 3 4 4 6 8 10 8 10 8 6 7 10 11 12 11 13 9 4 2 5 3 7 7 11 15 14 14 11 6 8 7 7 6 5 3 5 4 4 7 5 6 7 13 16 17
Wind_Direction
278 250 235 226 225 221 220 223 229 246 266 267 278 266 294 316 335 332 297 311 309 300 298 288 295 295 290 273 309 24 5 260 213 227 246 247 271 93 301 22 106 227 305 251 245 225 211 86 96 71 210 61 306 102
287 258 234 225 222 213 210 217 226 240 255 255 266 248 270 300 323 336 274 330 279 269 294 314 289 277 276 284 302 86 182 330 301 272 220 245 130 17 38 271 27 339 11 309 21 64 159 191 128 98 78 274 212 114
284 287 237 223 218 201 199 212 223 237 246 246 255 235 250 278 303 316 303 316 291 273 267 252 249 251 232 244 254 260 155 189 259 303 339 316 109 345 174 168 82 350 292 269 27 95 78 61 11 347 308 162 133 123
281 280 254 201 189 191 199 212 226 235 238 242 238 227 241 266 287 297 289 306 305 293 279 288 212 207 233 240 221 231 258 281 289 304 330 303 303 199 169 179 140 178 227 231 182 119 88 70 66 307 266 119 118 105
278 268 253 224 205 201 209 221 229 227 226 231 222 218 236 265 291 281 267 264 261 276 314 312 310 274 200 196 212 229 240 270 317 308 302 296 347 0 346 154 204 181 202 295 55 36 68 177 195 217 117 121 114 132
282 261 246 231 210 207 213 219 222 222 224 209 203 212 235 271 308 287 223 192 237 230 277 283 313 247 248 261 197 228 230 225 240 287 279 294 64 351 297 283 27 197 321 44 338 42 55 122 138 153 152 144 144 139
270 254 238 224 218 214 215 220 225 216 193 196 191 211 243 272 278 269 349 12 347 312 250 266 245 209 185 223 205 200 198 225 262 259 247 270 268 326 291 283 4 349 358 359 324 337 112 144 166 154 150 139 134 128
254 237 227 221 220 218 215 219 215 185 179 179 191 219 258 277 268 264 222 222 250 271 272 271 267 190 179 205 215 205 192 202 215 252 262 240 122 107 230 293 59 42 16 359 304 292 298 152 100 133 152 134 139 130
249 225 219 221 220 214 209 197 169 168 158 169 196 257 251 220 231 72 100 132 203 290 305 251 255 302 155 223 215 174 215 204 223 227 240 252 160 227 197 200 249 184 120 322 312 279 278 176 154 144 150 157 132 137
230 221 220 211 195 175 156 146 138 139 151 164 229 214 225 67 113 138 170 185 197 203 223 257 286 278 238 203 225 186 187 235 213 219 221 223 248 213 163 245 195 197 189 201 227 231 166 238 159 169 169 169 144 146
159 170 147 131 120 119 121 132 144 150 163 217 205 263 59 134 228 214 222 227 190 216 203 230 242 270 282 268 325 237 237 226 233 243 211 230 224 223 211 199 175 198 204 231 260 250 211 207 176 162 178 151 136 139
78 85 95 103 108 114 120 135 162 206 292 218 317 278 271 211 223 215 222 212 211 230 210 203 209 216 266 354 277 279 261 235 231 227 162 214 244 137 172 189 171 218 228 229 238 207 215 201 153 169 167 137 138 138
78 79 77 80 99 116 126 152 233 299 262 196 253 242 220 232 208 228 187 209 217 203 172 207 166 211 214 279 246 273 226 248 285 234 245 230 115 98 105 126 167 226 218 236 230 212 217 172 144 163 146 131 134 131
76 77 77 70 52 58 112 74 315 275 289 198 208 265 231 203 223 209 232 31 74 30 28 355 58 250 207 183 246 231 256 256 246 237 227 234 155 146 150 158 165 193 238 227 217 163 188 135 159 147 131 136 139 139
21 6 346 34 21 4 334 248 263 208 273 212 193 235 226 248 321 92 278 159 251 315 198 290 121 247 295 271 205 248 228 224 236 242 191 105 133 143 141 147 176 195 194 214 159 161 155 159 149 140 142 141 135 147
285 308 55 3 11 14 312 218 178 245 268 250 225 249 276 267 251 267 324 248 171 247 266 161 250 282 252 282 231 227 229 233 252 66 47 68 95 93 123 162 129 138 173 160 155 154 157 153 150 143 138 143 148 153
268 146 189 345 339 350 293 328 201 207 253 236 228 240 259 272 250 320 69 28 316 243 247 62 244 215 264 237 263 244 247 261 15 111 125 75 312 118 139 143 136 144 174 160 145 150 151 151 146 141 148 147 152 148
266 126 21 342 321 163 172 169 265 247 241 253 238 257 228 280 305 311 124 204 267 263 319 208 291 254 250 257 248 23 12 8 26 50 21 75 186 145 124 118 117 148 175 145 141 159 146 155 144 150 146 151 140 143
345 339 18 331 328 293 197 171 167 256 256 217 249 260 266 271 272 286 281 167 261 307 195 245 243 232 265 346 351 357 37 3 355 358 297 219 204 102 105 126 133 138 141 145 159 167 164 151 158 154 158 147 160 160
297 286 273 283 271 251 228 175 216 230 245 249 267 264 264 243 244 278 287 278 257 260 240 241 247 257 280 337 127 92 60 288 87 300 257 113 125 136 147 155 142 136 148 151 168 163 133 156 160 157 158 175 160 165
249 120 249 233 213 239 270 242 255 238 277 265 266 250 230 215 223 231 235 238 239 237 244 245 255 266 283 319 168 135 199 207 283 330 344 21 4 83 127 217 140 166 156 168 154 136 152 166 142 164 156 172 162 164
238 289 282 213 240 212 250 199 250 278 252 255 251 240 254 257 253 250 252 236 241 243 241 245 245 250 257 227 260 245 235 264 286 301 293 310 322 328 219 173 181 184 166 171 159 156 181 161 163 152 172 166 158 164
274 238 207 269 253 181 258 190 249 237 244 236 247 251 252 240 242 255 246 241 243 238 239 242 245 250 268 280 289 300 249 239 266 276 283 282 352 315 289 265 184 166 154 150 143 171 153 143 145 160 167 152 170 137
166 236 258 223 212 259 223 178 233 260 255 252 245 251 258 268 252 230 239 246 258 263 237 224 230 231 230 234 254 246 240 239 240 252 261 266 202 357 285 230 156 111 142 78 166 165 140 159 156 179 159 172 172 150
212 261 151 250 224 236 242 222 220 233 249 242 245 251 266 256 242 237 239 242 236 245 251 204 209 228 242 244 224 219 229 251 254 247 244 248 241 201 283 214 225 126 113 121 236 135 147 165 179 187 171 187 184 169
233 217 191 208 205 207 212 237 224 230 239 243 263 263 251 248 239 251 259 242 245 258 219 214 203 205 222 235 254 252 222 199 213 235 244 219 219 216 208 230 206 196 195 165 127 65 251 176 191 191 180 179 187 196
239 235 198 233 249 250 301 281 277 272 256 260 238 236 243 239 253 237 237 247 266 186 77 100 123 172 283 297 305 307 295 275 263 216 228 234 187 218 210 229 279 280 174 191 171 173 233 200 180 163 146 181 183 207
229 263 249 244 252 259 261 255 268 263 247 241 236 242 236 217 229 251 350 27 74 96 104 163 224 239 203 183 234 259 268 292 247 231 249 224 101 255 189 119 84 275 288 164 168 188 205 192 185 194 201 202 176 191
213 216 219 254 218 228 243 243 246 246 248 251 244 236 237 263 350 347 317 218 74 110 74 303 279 279 222 233 253 251 250 253 271 212 219 212 211 229 249 216 154 201 191 117 82 99 131 39 292 201 205 185 168 170
224 215 193 204 195 221 222 209 262 275 275 253 265 276 281 285 274 272 277 272 206 249 255 243 250 262 251 196 244 245 268 263 241 240 210 230 188 205 203 206 208 215 201 167 136 119 93 75 313 268 178 163 165 183
264 250 235 214 222 232 239 230 254 282 281 271 215 213 234 248 241 268 277 279 259 248 239 255 263 245 250 267 266 256 291 271 227 228 328 337 112 115 115 158 173 167 178 168 157 140 133 138 171 253 187 139 136 138
253 268 269 265 266 261 260 204 228 229 246 251 248 255 240 259 251 253 252 249 241 250 241 242 248 254 186 260 282 307 273 249 104 133 146 121 127 118 135 146 140 146 138 113 91 126 175 178 196 211 198 187 174 201
276 266 264 269 252 233 212 203 215 258 252 251 249 256 261 246 245 242 216 207 264 234 235 223 216 225 125 256 293 302 97 95 103 88 68 63 60 98 133 146 140 135 110 137 139 145 165 165 203 227 203 142 167 210